Theta_e
298 299 298 298 297 298 298 299 299 298 298 298 296 296 295 296 297 295 296 295 297 298 298 298 298 299 299 299 301 300 302 303 306 307 308 308 308 308 308 308 308 308 309 310 310 311 308 310 310 310 310 308 308 308
298 297 297 297 298 298 299 298 298 297 297 297 297 296 296 298 297 295 297 296 296 296 297 297 297 297 297 299 299 298 300 301 303 306 306 306 307 306 307 308 305 307 307 309 310 308 307 307 309 308 307 308 308 308
297 297 297 297 297 298 298 296 296 296 296 297 296 296 296 295 294 296 297 296 296 295 295 296 298 299 299 298 298 299 299 300 301 303 304 304 306 305 307 306 306 305 303 306 306 305 305 304 304 307 307 307 307 307
297 297 296 296 297 298 298 297 296 296 296 296 297 296 296 296 298 297 296 296 295 295 296 297 298 298 298 298 298 299 299 300 301 302 304 305 306 302 305 304 304 303 303 304 304 303 305 307 307 308 307 307 306 305
296 296 296 296 297 298 299 298 296 296 296 296 296 296 297 297 297 296 295 294 294 295 297 297 298 298 298 298 299 298 299 299 301 303 304 304 302 303 302 302 304 302 304 305 304 306 307 308 308 307 306 305 303 302
295 296 296 296 297 297 298 298 297 296 296 297 297 298 297 296 296 295 294 296 297 296 295 298 298 298 299 301 302 298 299 298 300 302 303 302 301 302 304 303 303 302 302 303 307 305 305 306 306 305 304 303 302 302
294 295 295 295 296 297 298 298 297 297 297 297 297 297 296 296 296 294 294 295 296 296 296 297 297 297 299 300 298 298 299 300 302 303 303 303 302 302 304 304 303 302 302 303 303 303 307 306 305 303 303 301 300 300
295 295 295 295 296 298 298 297 297 297 297 296 296 297 296 296 296 295 296 296 295 295 295 296 297 297 300 303 303 300 301 301 301 303 301 303 302 303 305 304 303 302 302 303 304 305 305 304 303 304 303 302 301 301
294 295 295 295 297 298 296 296 297 296 297 296 296 296 295 295 295 297 297 296 294 295 296 296 297 299 298 300 302 302 302 304 302 303 303 303 304 305 305 304 304 303 304 304 305 303 303 303 303 303 302 302 302 302
296 296 295 295 298 297 297 297 297 296 295 295 295 295 296 296 297 298 298 297 296 295 295 296 296 297 296 298 302 300 302 303 304 303 302 305 305 304 304 303 303 303 304 305 305 304 304 303 303 302 302 302 302 302
296 296 296 297 297 297 297 296 296 296 296 295 296 296 296 295 296 296 297 297 297 297 296 296 296 298 297 298 299 301 304 303 305 306 305 306 306 305 305 306 306 305 304 303 303 303 303 303 303 303 302 302 301 302
295 296 296 297 297 297 296 296 296 295 296 295 295 295 295 295 297 298 298 298 298 299 298 297 298 296 298 297 299 301 306 305 307 302 307 307 306 305 306 305 304 303 303 303 304 303 302 302 303 303 301 301 301 301
295 295 295 296 296 296 296 296 296 295 295 294 295 296 296 296 297 298 300 301 299 299 299 299 300 299 299 297 299 303 305 305 302 307 306 307 306 307 304 304 304 304 304 304 303 302 302 302 302 302 302 302 302 302
294 294 294 294 294 296 296 295 296 296 295 294 295 295 297 298 299 300 300 300 299 298 299 299 298 300 301 301 303 304 304 305 307 306 307 308 306 306 305 304 304 304 304 303 302 302 302 302 302 303 303 303 302 302
293 293 293 293 294 295 295 295 295 296 295 295 296 296 298 298 298 298 298 298 298 298 299 299 298 299 303 304 304 304 305 307 306 309 308 306 306 306 306 305 304 304 304 304 303 303 303 303 303 303 303 303 302 301
293 293 293 293 294 295 295 295 295 295 295 294 295 296 296 296 297 297 297 297 297 297 298 299 302 304 304 305 305 305 307 308 308 307 305 304 304 304 307 306 305 304 304 304 304 304 304 305 304 303 303 303 303 302
293 293 293 292 293 294 294 294 294 293 294 295 296 295 295 295 296 296 295 297 296 298 301 301 303 305 302 305 304 304 307 305 304 304 302 302 302 303 304 307 306 305 305 304 304 304 304 305 305 304 304 303 303 303
293 293 292 292 293 293 292 292 293 293 294 294 295 295 294 294 295 295 296 296 296 297 300 302 302 302 302 303 304 301 302 303 302 302 301 302 304 306 307 306 307 306 305 304 305 305 305 304 304 305 304 303 303 303
293 292 292 292 292 292 293 294 293 294 295 294 294 295 295 295 296 296 297 297 298 298 298 301 301 302 302 299 300 302 303 302 302 301 303 303 302 306 308 307 307 307 304 304 304 305 305 305 305 304 304 304 303 303
293 293 292 292 291 292 293 294 294 294 295 295 295 296 295 295 295 297 297 298 298 298 299 301 301 299 300 302 301 301 301 301 301 304 306 304 304 305 306 305 306 306 304 304 304 304 305 305 304 304 304 304 303 303
293 292 292 292 292 293 292 292 293 294 295 295 295 295 295 295 296 296 297 298 298 297 298 298 299 301 300 300 300 301 302 301 301 302 305 304 302 304 305 305 305 305 304 304 304 305 305 304 305 306 305 303 303 302
293 293 293 293 293 293 293 294 294 294 294 294 295 295 296 296 297 297 296 298 299 300 299 299 300 300 301 300 300 301 301 301 302 302 302 302 302 303 306 306 306 305 305 305 305 304 304 304 305 306 305 304 303 303
293 293 293 293 293 293 293 293 294 294 295 296 298 298 299 299 299 299 299 299 299 299 298 300 300 301 301 303 303 301 301 301 301 301 302 302 302 303 305 306 307 308 308 306 306 306 306 306 306 305 305 305 303 303
293 293 294 294 294 295 295 296 295 296 297 298 298 300 300 300 300 301 301 300 299 298 300 301 302 302 303 303 303 303 303 303 302 301 301 301 303 306 307 307 308 308 307 307 306 306 307 307 306 306 305 305 304 304
292 293 293 293 294 295 296 297 298 299 300 300 300 300 300 299 302 300 300 299 298 298 299 300 301 302 303 303 303 303 303 303 303 301 301 302 303 303 304 307 307 307 307 307 307 308 307 307 307 307 306 304 304 305
290 293 293 295 296 296 297 297 298 299 299 299 300 298 298 300 302 300 299 298 297 298 299 299 300 302 303 303 303 302 302 301 301 301 302 302 302 301 302 302 303 304 304 305 306 308 308 308 309 307 305 304 304 306
292 295 294 295 296 296 296 297 297 297 299 300 299 298 298 298 298 298 297 298 298 299 300 300 301 302 304 304 303 302 301 301 301 301 301 302 302 302 304 304 303 304 303 304 306 307 307 308 308 307 307 305 304 305
294 295 295 296 295 295 296 297 297 298 299 298 298 297 298 297 298 297 298 299 300 301 302 302 302 304 304 304 304 304 303 302 302 303 305 306 305 306 308 308 309 308 308 307 307 307 308 308 308 307 307 306 306 306
295 295 295 296 296 296 297 297 298 298 297 297 298 298 297 296 297 297 298 299 300 300 301 302 302 303 304 304 304 304 305 305 305 305 305 305 305 305 306 307 306 306 307 308 308 308 308 309 309 307 306 307 308 307
296 295 296 297 295 295 296 297 297 297 297 296 297 297 297 298 297 297 297 297 298 300 300 301 301 302 303 303 304 304 304 304 304 304 304 304 304 306 307 308 308 308 308 307 309 308 309 308 309 308 306 307 307 306
297 296 297 297 297 297 297 297 297 297 296 296 297 297 297 297 297 297 297 297 298 299 299 300 300 300 301 302 302 303 303 303 303 303 303 303 304 304 306 307 308 308 308 308 308 308 309 309 308 307 305 306 306 305
297 297 298 298 297 297 298 298 297 297 297 297 297 297 297 297 298 298 297 297 299 299 299 300 300 300 300 300 300 300 300 301 302 303 302 302 302 302 303 304 306 306 306 306 306 307 308 309 308 307 304 304 306 304
298 297 298 298 298 298 299 298 298 298 298 297 297 298 298 297 297 297 296 298 297 298 300 300 300 301 301 300 300 299 298 298 299 301 302 302 302 301 301 302 302 302 303 304 304 305 306 307 307 307 305 305 304 303
Wind_Speed
24 24 24 24 22 20 18 18 16 17 15 14 13 12 10 7 11 10 7 9 5 6 16 20 15 15 9 8 6 2 4 3 2 5 4 4 4 4 3 1 3 7 6 4 4 4 6 3 3 3 4 8 12 13
24 23 21 20 19 16 15 16 18 14 12 12 12 11 7 9 11 9 6 7 12 12 13 22 30 31 23 16 8 3 3 3 2 2 2 1 3 3 2 4 2 4 2 1 4 1 3 1 3 8 7 9 14 18
21 21 20 19 17 12 14 15 15 12 12 12 12 12 11 10 8 9 11 10 12 10 16 9 5 5 0 7 27 11 7 6 4 3 0 1 2 1 3 3 2 2 2 3 2 2 2 5 9 4 8 11 15 14
20 19 18 17 17 13 13 13 16 14 12 12 12 10 12 7 7 9 12 14 12 7 5 6 2 11 18 14 14 19 9 3 4 3 3 2 2 2 1 1 3 1 5 4 6 10 7 2 3 11 13 12 12 14
19 18 18 17 15 13 14 12 13 17 14 14 14 12 10 8 10 15 15 16 14 8 4 11 16 4 4 5 10 18 21 11 2 2 3 2 2 3 1 1 5 7 6 4 3 2 3 9 10 12 9 10 12 15
18 18 17 15 15 14 14 11 11 14 13 13 13 10 9 11 12 9 4 4 6 8 4 3 5 3 8 9 10 12 18 12 5 2 1 2 3 2 2 3 3 7 7 7 1 3 9 12 9 6 6 9 12 12
18 17 17 15 15 13 13 12 12 14 10 11 12 10 8 10 9 5 5 8 3 7 3 6 5 3 8 1 4 8 9 5 5 3 3 1 3 4 2 3 2 4 9 8 9 9 7 3 4 7 5 9 11 10
16 17 16 14 12 13 11 11 11 10 9 11 10 9 10 9 10 9 3 6 14 8 4 3 4 4 5 0 4 7 8 6 6 2 1 3 3 3 3 8 6 5 6 7 3 6 6 6 8 3 6 8 10 12
17 16 15 11 10 7 5 7 7 8 8 9 10 8 8 7 5 3 4 2 6 6 2 3 3 3 8 3 2 3 5 4 4 4 3 5 2 4 6 5 4 3 2 3 4 1 2 2 5 5 7 9 11 13
16 15 11 9 6 5 7 6 6 8 9 10 6 2 2 2 3 2 3 2 2 5 4 4 4 3 3 3 2 2 0 2 3 3 5 3 3 16 15 16 16 11 8 4 0 1 2 1 5 8 9 11 14 17
16 10 8 7 7 10 6 6 7 8 8 3 1 1 3 1 2 1 2 3 3 3 4 5 6 4 2 2 2 1 0 2 2 3 3 4 2 3 2 1 3 4 4 4 2 2 1 2 6 11 14 15 15 16
15 8 8 8 8 3 3 7 7 4 2 1 2 3 2 0 1 3 2 2 3 2 3 4 5 6 3 3 2 1 2 1 1 6 2 2 2 4 3 7 7 6 5 4 3 2 2 5 8 11 16 18 15 13
12 12 9 8 3 3 5 3 1 1 2 0 1 1 1 1 2 2 3 2 2 2 3 3 3 3 3 4 3 2 2 0 6 2 1 1 2 2 6 6 6 5 5 4 4 4 3 5 7 13 18 18 14 11
12 10 7 6 7 4 0 2 0 4 1 1 1 2 2 1 1 2 3 3 4 7 17 15 4 5 4 3 2 2 0 1 2 2 2 0 2 5 5 4 5 5 7 7 8 5 6 7 8 14 20 22 18 14
9 13 7 4 3 2 0 1 2 3 1 1 1 2 1 2 6 6 6 8 9 17 14 5 2 3 3 2 2 1 2 2 1 3 3 2 4 4 4 5 6 6 6 6 7 9 8 8 7 13 19 21 20 18
4 8 14 9 7 5 3 3 1 2 1 1 1 2 2 4 5 4 8 15 11 15 8 1 2 2 2 1 2 3 2 1 3 1 3 5 6 4 4 6 5 5 5 5 5 6 9 9 8 9 14 19 22 22
7 9 9 9 9 7 5 3 2 2 2 2 2 5 5 7 8 6 15 15 18 6 4 3 3 4 1 2 1 3 3 2 3 3 7 7 6 3 4 6 6 5 3 3 3 4 5 6 6 8 12 16 20 23
6 6 7 7 8 6 5 4 3 2 1 2 4 3 6 10 12 11 12 16 10 8 3 3 3 3 2 2 2 2 2 3 7 10 11 12 9 7 6 6 7 5 4 3 2 2 1 3 6 8 10 12 17 21
7 3 5 6 8 5 3 4 3 2 2 4 6 8 8 10 11 11 14 13 11 4 1 3 3 3 2 2 2 3 3 6 7 11 11 17 19 10 8 6 5 4 4 3 2 0 2 4 6 8 9 11 14 19
6 5 4 7 7 3 2 2 3 2 3 4 7 6 9 8 10 11 9 7 7 3 4 3 3 5 6 12 14 9 4 9 13 12 13 14 14 13 10 11 9 7 5 5 3 2 3 7 9 10 9 10 11 15
6 6 6 7 4 3 2 2 2 3 5 4 6 11 6 8 6 6 6 7 6 6 5 6 12 10 14 16 12 11 9 11 12 11 15 9 15 12 8 7 7 6 4 3 5 3 5 8 10 10 9 8 8 12
8 9 8 6 3 3 2 3 5 8 3 5 6 7 4 4 5 5 5 7 5 5 7 6 6 12 13 12 12 11 10 10 9 7 6 6 11 11 9 7 4 3 3 3 2 3 6 9 11 12 11 8 7 10
8 7 4 4 3 3 2 6 2 2 3 3 5 3 2 3 4 5 4 4 4 10 10 6 6 9 9 11 11 10 7 6 5 5 6 8 10 9 7 7 6 6 6 3 4 5 7 9 11 11 12 8 6 8
6 3 2 2 2 3 4 2 3 3 3 2 1 1 2 4 4 3 3 3 7 13 13 10 6 6 6 8 12 11 7 5 4 2 2 8 9 10 11 9 6 10 11 10 7 9 11 11 12 12 10 8 3 5
2 1 2 2 2 2 2 4 3 2 2 3 2 1 4 4 2 2 2 6 10 13 16 13 9 8 9 9 9 11 10 8 6 7 5 6 8 9 11 11 11 6 9 10 10 12 15 16 14 10 7 4 1 4
1 1 0 3 2 3 4 4 4 4 2 1 1 2 3 2 3 3 3 8 10 13 14 13 11 10 8 12 14 11 7 10 9 8 6 7 9 11 11 10 10 9 11 10 10 9 11 13 15 13 6 1 5 5
2 0 1 1 2 3 3 3 4 2 3 4 3 4 3 3 3 2 3 5 9 8 10 10 10 9 10 11 12 9 7 7 7 6 6 6 6 7 8 9 11 13 14 15 10 8 8 10 10 6 4 6 6 5
3 2 1 1 1 1 3 2 2 3 3 4 2 3 2 2 2 3 5 6 5 8 10 7 7 7 10 13 13 10 7 6 6 7 6 5 8 9 10 11 10 11 12 10 8 8 9 8 9 5 2 4 5 7
2 2 1 2 1 2 1 1 1 1 2 3 3 1 2 1 3 4 8 8 7 7 7 6 6 7 7 9 10 11 11 9 8 8 10 12 12 12 12 9 9 11 10 9 10 12 12 10 9 7 5 6 5 7
2 5 2 2 2 2 0 1 3 2 2 2 1 1 3 4 5 7 7 8 8 6 4 6 9 8 7 7 9 9 10 11 12 13 14 16 18 17 16 14 13 11 9 9 12 13 14 8 6 4 10 7 3 5
2 4 2 2 1 1 2 1 2 3 2 3 3 2 2 3 5 8 9 8 8 5 5 6 7 9 9 9 11 10 9 10 11 12 13 13 14 15 14 12 12 11 11 11 12 12 12 8 4 5 9 9 2 3
1 3 3 2 1 2 1 1 2 2 1 2 3 2 2 3 3 6 11 7 5 4 2 2 2 5 7 9 10 12 13 13 12 12 12 14 15 12 13 12 10 9 9 9 11 11 9 7 5 5 8 10 3 6
3 4 4 2 1 1 1 2 2 3 2 2 2 3 3 2 2 6 10 9 9 9 5 3 2 5 8 10 12 12 13 13 13 12 13 13 13 15 18 15 15 12 10 11 11 11 9 5 5 5 3 6 6 8
Wind_Direction
305 305 304 304 303 304 308 310 307 310 310 310 311 311 314 316 314 322 301 279 266 263 279 272 260 257 255 244 245 318 285 191 249 214 222 194 221 193 233 176 197 196 190 197 208 232 253 133 145 240 360 307 301 307
303 304 305 305 302 300 309 315 310 308 305 310 313 313 299 290 302 303 306 302 286 272 266 282 280 272 256 249 229 238 300 319 293 263 197 205 190 190 201 216 155 210 266 258 214 267 101 34 278 304 307 294 300 305
304 304 304 305 300 287 301 317 321 315 301 302 308 318 309 295 292 273 286 300 310 297 301 286 285 212 220 268 232 240 261 228 240 229 296 58 240 232 208 201 196 171 164 247 260 171 252 275 291 278 311 310 308 307
306 305 304 305 305 272 283 295 316 312 301 303 294 309 308 285 276 298 300 300 297 289 280 283 317 294 288 267 244 230 202 290 250 204 213 230 226 187 242 11 259 313 168 219 253 281 284 296 271 324 319 319 318 316
306 303 304 305 308 271 278 286 309 313 310 303 295 295 291 299 306 300 298 284 263 230 279 289 311 26 359 304 241 217 217 234 297 215 210 215 129 196 162 254 246 203 232 212 257 155 294 300 320 322 320 326 329 323
307 303 301 299 299 277 279 282 296 305 291 287 289 278 287 295 302 320 298 295 244 236 278 291 287 256 344 317 231 205 209 223 231 262 180 201 200 231 242 244 248 214 211 207 124 329 291 297 314 316 325 336 337 335
309 305 300 296 295 288 282 288 302 289 286 295 296 282 288 296 292 282 274 287 282 2 307 292 291 300 325 9 137 154 175 187 196 229 217 199 169 190 254 250 212 218 217 236 265 300 299 271 312 316 326 347 354 357
307 306 305 290 291 294 271 286 289 293 291 297 301 290 293 271 277 292 318 280 238 269 285 284 283 304 340 342 142 150 164 183 197 197 215 187 150 219 254 245 253 244 250 263 237 286 278 304 317 284 313 331 352 353
311 305 306 289 286 274 292 290 288 290 298 298 303 292 282 269 256 233 208 145 178 208 269 248 293 325 338 325 131 134 170 177 169 211 199 168 152 227 236 252 236 198 225 301 322 345 3 354 344 313 312 316 323 331
323 313 306 284 300 264 292 291 294 293 294 304 302 280 252 244 4 319 242 258 201 203 226 251 261 273 326 309 69 120 109 159 192 199 136 216 250 259 265 265 274 275 280 266 246 93 4 349 4 358 330 319 318 322
337 328 311 317 269 254 268 273 292 292 307 301 326 316 63 20 314 299 243 227 178 231 220 245 242 276 281 279 343 299 264 182 214 152 208 192 253 274 349 56 102 101 113 130 170 322 353 340 340 346 346 337 326 323
347 332 333 317 273 185 288 307 300 281 285 101 357 307 327 357 240 262 221 189 224 268 209 228 236 220 263 234 270 223 302 203 187 141 219 202 246 282 46 102 104 111 116 120 54 94 51 3 353 348 347 347 339 330
2 3 2 8 333 314 307 299 279 291 104 85 343 327 353 205 256 269 345 121 289 248 254 254 228 196 226 225 250 242 257 291 133 190 185 255 281 356 124 116 121 112 102 83 68 90 40 22 17 6 3 5 1 348
4 354 354 352 357 9 305 100 220 199 140 355 344 328 291 238 335 323 319 307 296 285 302 304 244 198 197 193 240 253 92 230 175 199 168 125 65 84 125 131 124 111 80 76 77 71 50 53 41 25 26 23 21 15
6 14 21 7 349 302 96 63 22 150 122 348 325 351 287 311 264 284 309 313 309 305 298 283 219 180 172 235 232 235 237 231 220 17 65 61 73 94 110 116 111 104 83 81 67 56 57 62 55 34 31 30 31 29
29 29 45 44 30 55 131 183 140 138 354 323 277 287 303 297 324 342 331 311 344 335 328 217 149 174 134 277 217 216 257 96 76 47 6 54 59 71 113 116 123 109 89 87 75 62 55 63 57 40 26 27 29 29
48 46 35 39 47 61 63 81 64 27 334 313 296 285 286 286 279 308 320 326 341 1 355 3 28 27 330 1 27 347 11 25 8 32 48 37 26 55 115 138 149 145 120 98 89 71 64 50 30 23 18 21 23 25
52 51 35 35 24 14 14 12 11 10 313 293 299 334 323 302 296 311 320 330 347 350 11 358 344 26 28 7 350 326 328 355 71 64 56 51 51 71 98 133 140 135 131 125 95 79 45 5 1 359 357 11 15 19
26 27 19 7 358 357 6 4 6 338 288 298 306 322 322 314 320 323 327 334 338 360 91 13 20 347 347 270 278 12 20 59 54 59 65 57 48 63 88 107 133 132 110 101 162 187 355 345 330 333 339 352 3 15
350 351 356 354 353 352 354 338 332 311 301 316 312 325 316 308 321 328 338 351 352 39 61 35 343 316 350 18 8 16 54 69 61 56 54 61 42 48 85 81 79 89 97 54 52 187 345 346 343 333 318 330 354 11
15 7 353 351 351 356 334 328 312 308 313 307 321 328 307 330 328 343 0 8 42 34 42 39 348 359 353 355 17 32 47 61 60 63 48 60 25 34 74 97 78 76 82 63 51 56 343 346 353 349 326 318 343 13
356 349 347 2 350 344 339 337 302 303 284 293 328 334 316 339 350 11 6 42 52 26 8 352 323 318 346 22 41 62 63 51 50 60 81 21 14 29 40 54 64 65 67 64 55 4 4 358 347 341 334 322 340 19
339 346 10 341 5 351 342 332 314 314 295 321 333 310 328 345 351 8 66 54 45 0 350 356 319 341 49 58 53 52 45 45 44 31 39 37 26 18 22 45 56 38 19 16 360 343 342 341 346 332 327 322 336 15
349 343 355 335 332 317 319 291 270 264 266 272 313 347 7 337 8 60 67 59 358 357 16 22 9 68 62 45 41 31 29 31 32 38 37 24 45 53 55 57 73 45 40 35 12 351 345 336 326 321 318 319 338 18
336 340 6 337 325 308 297 316 291 269 341 4 355 45 16 345 57 57 42 6 358 4 6 11 26 41 32 24 10 13 3 15 83 79 70 53 43 41 55 58 48 33 13 19 19 17 12 6 357 338 320 328 122 39
358 299 260 2 356 350 348 336 351 339 301 288 50 11 1 30 54 58 41 348 355 358 360 359 357 352 2 4 6 18 57 85 79 78 71 42 26 18 13 9 4 2 2 357 351 356 1 2 15 22 21 86 132 18
310 294 299 273 339 330 317 307 305 319 346 22 21 360 17 59 58 14 340 354 351 359 1 350 344 351 4 16 26 38 64 62 50 41 22 0 349 342 346 339 333 333 332 332 323 316 334 348 356 22 69 135 150 27
248 281 254 185 311 242 297 301 334 13 9 5 344 35 37 31 66 335 326 22 16 22 23 18 31 40 38 36 33 33 39 25 14 10 11 351 333 329 329 331 325 327 338 342 329 313 321 330 336 311 326 115 87 16
245 224 215 259 216 235 276 299 332 45 34 359 342 28 13 347 350 1 15 35 34 20 25 47 30 26 31 35 36 35 43 45 44 31 21 10 6 358 356 342 334 336 335 337 331 328 327 325 317 297 194 136 50 33
241 201 217 188 151 239 261 341 342 335 341 334 294 353 17 22 40 30 25 16 14 6 1 16 8 357 8 21 26 18 16 18 16 15 10 2 356 352 352 356 358 358 350 349 352 354 349 327 311 279 193 196 154 48
257 178 201 185 246 223 246 299 73 77 76 62 62 75 56 47 52 29 9 355 348 352 2 355 3 9 9 7 8 8 8 3 5 1 356 346 344 349 350 349 348 352 1 3 0 357 355 346 304 262 221 200 186 124
99 179 189 197 78 141 128 84 104 98 94 48 36 31 33 45 50 17 2 10 19 19 24 38 12 1 4 5 358 352 349 342 334 331 336 336 337 341 348 348 345 345 349 353 352 349 351 355 341 293 247 227 292 157
84 83 87 74 51 62 87 97 69 101 100 98 54 57 40 52 58 18 354 23 37 20 18 18 346 328 328 333 332 331 331 331 328 325 321 317 317 326 322 322 330 327 325 329 333 332 331 332 322 316 276 246 179 149